Time,TemperatureF,DewpointF,PressureIn,WindDirection,WindDirectionDegrees,WindSpeedMPH,WindSpeedGustMPH,Humidity,HourlyPrecipIn,Conditions,Clouds,dailyrainin,SoftwareType,DateUTC
2013-11-29 00:02:00,62.2,58.3,30.17,North,354,2.0,17.0,87,0.00,,,0.00,Wunderground v.1.15,2013-11-29 05:02:00,
2013-11-29 00:04:00,62.1,58.2,30.17,NW,314,2.0,17.0,87,0.00,,,0.00,Wunderground v.1.15,2013-11-29 05:04:00,
2013-11-29 00:06:00,62.0,58.1,30.17,NW,312,2.0,17.0,87,0.00,,,0.00,Wunderground v.1.15,2013-11-29 05:06:00,
2013-11-29 00:12:00,61.7,57.8,30.17,NW,309,2.0,4.0,87,0.00,,,0.00,Wunderground v.1.15,2013-11-29 05:12:00,
2013-11-29 00:14:00,61.6,58.0,30.17,NW,304,2.0,17.0,88,0.00,,,0.00,Wunderground v.1.15,2013-11-29 05:14:00,
2013-11-29 00:20:00,61.4,57.8,30.17,NW,322,2.0,2.0,88,0.00,,,0.00,Wunderground v.1.15,2013-11-29 05:20:00,
2013-11-29 00:26:00,61.2,57.6,30.17,NNW,338,2.0,17.0,88,0.00,,,0.00,Wunderground v.1.15,2013-11-29 05:26:00,
2013-11-29 00:28:00,61.1,57.8,30.17,NW,326,2.0,17.0,89,0.00,,,0.00,Wunderground v.1.15,2013-11-29 05:28:00,
2013-11-29 00:34:00,60.9,57.6,30.16,NW,320,1.0,17.0,89,0.00,,,0.00,Wunderground v.1.15,2013-11-29 05:34:00,
2013-11-29 00:40:00,60.9,57.9,30.16,NW,325,2.0,17.0,90,0.00,,,0.00,Wunderground v.1.15,2013-11-29 05:40:00,
2013-11-29 00:46:00,60.8,57.8,30.16,NW,310,2.0,17.0,90,0.00,,,0.00,Wunderground v.1.15,2013-11-29 05:46:00,
2013-11-29 00:52:00,60.6,57.7,30.16,NW,312,1.0,17.0,90,0.00,,,0.00,Wunderground v.1.15,2013-11-29 05:52:00,
2013-11-29 00:58:00,60.5,57.9,30.16,NW,311,0.0,17.0,91,0.00,,,0.00,Wunderground v.1.15,2013-11-29 05:58:00,
2013-11-29 01:04:00,60.4,57.8,30.16,NW,319,0.0,17.0,91,0.00,,,0.00,Wunderground v.1.15,2013-11-29 06:04:00,
2013-11-29 01:10:00,60.4,58.1,30.16,NNW,341,0.0,17.0,92,0.00,,,0.00,Wunderground v.1.15,2013-11-29 06:10:00,
2013-11-29 01:16:00,60.4,58.1,30.16,NNW,338,1.0,17.0,92,0.00,,,0.00,Wunderground v.1.15,2013-11-29 06:16:00,
2013-11-29 01:22:00,60.5,58.2,30.16,WNW,298,2.0,17.0,92,0.00,,,0.00,Wunderground v.1.15,2013-11-29 06:22:00,
2013-11-29 01:28:00,60.5,58.2,30.16,NNW,330,3.0,17.0,92,0.00,,,0.00,Wunderground v.1.15,2013-11-29 06:28:00,
2013-11-29 01:34:00,60.5,58.2,30.16,NNW,342,3.0,17.0,92,0.00,,,0.00,Wunderground v.1.15,2013-11-29 06:34:00,
2013-11-29 01:40:00,60.5,58.2,30.16,WNW,291,3.0,3.0,92,0.00,,,0.00,Wunderground v.1.15,2013-11-29 06:40:00,
2013-11-29 01:46:00,60.4,58.1,30.16,NNW,327,3.0,17.0,92,0.00,,,0.00,Wunderground v.1.15,2013-11-29 06:46:00,
2013-11-29 01:52:00,60.4,58.1,30.16,NNW,327,4.0,17.0,92,0.00,,,0.00,Wunderground v.1.15,2013-11-29 06:52:00,
2013-11-29 01:58:00,60.3,58.0,30.16,NNW,335,3.0,17.0,92,0.00,,,0.00,Wunderground v.1.15,2013-11-29 06:58:00,
2013-11-29 02:04:00,60.3,58.0,30.15,NNW,340,3.0,17.0,92,0.00,,,0.00,Wunderground v.1.15,2013-11-29 07:04:00,
2013-11-29 02:10:00,60.2,57.9,30.15,North,8,3.0,17.0,92,0.00,,,0.00,Wunderground v.1.15,2013-11-29 07:10:00,
2013-11-29 02:16:00,60.2,57.9,30.15,North,6,3.0,17.0,92,0.00,,,0.00,Wunderground v.1.15,2013-11-29 07:16:00,
2013-11-29 02:22:00,60.1,58.1,30.15,NNW,338,2.0,17.0,93,0.00,,,0.00,Wunderground v.1.15,2013-11-29 07:22:00,
2013-11-29 02:28:00,60.0,58.0,30.15,NNW,343,2.0,17.0,93,0.00,,,0.00,Wunderground v.1.15,2013-11-29 07:28:00,
2013-11-29 02:34:00,60.0,58.0,30.15,NW,323,2.0,17.0,93,0.00,,,0.00,Wunderground v.1.15,2013-11-29 07:34:00,
2013-11-29 02:40:00,59.9,57.9,30.15,NNW,337,4.0,17.0,93,0.00,,,0.00,Wunderground v.1.15,2013-11-29 07:40:00,
2013-11-29 02:46:00,59.9,57.9,30.14,NW,323,4.0,17.0,93,0.00,,,0.00,Wunderground v.1.15,2013-11-29 07:46:00,
2013-11-29 02:52:00,59.9,57.9,30.14,NW,326,4.0,17.0,93,0.00,,,0.00,Wunderground v.1.15,2013-11-29 07:52:00,
2013-11-29 02:58:00,59.8,57.8,30.14,North,6,4.0,17.0,93,0.00,,,0.00,Wunderground v.1.15,2013-11-29 07:58:00,
2013-11-29 03:04:00,59.8,57.8,30.14,NNW,332,3.0,17.0,93,0.00,,,0.00,Wunderground v.1.15,2013-11-29 08:04:00,
2013-11-29 03:10:00,59.8,57.8,30.14,NNW,328,3.0,17.0,93,0.00,,,0.00,Wunderground v.1.15,2013-11-29 08:10:00,
2013-11-29 03:16:00,59.7,57.7,30.15,NW,312,3.0,17.0,93,0.00,,,0.00,Wunderground v.1.15,2013-11-29 08:16:00,
2013-11-29 03:22:00,59.6,57.6,30.15,NW,324,3.0,17.0,93,0.00,,,0.00,Wunderground v.1.15,2013-11-29 08:22:00,
2013-11-29 03:28:00,59.5,57.5,30.14,NW,323,3.0,17.0,93,0.00,,,0.00,Wunderground v.1.15,2013-11-29 08:28:00,
2013-11-29 03:34:00,59.4,57.4,30.14,NNW,333,3.0,17.0,93,0.00,,,0.00,Wunderground v.1.15,2013-11-29 08:34:00,
2013-11-29 03:40:00,59.4,57.4,30.14,NW,319,3.0,17.0,93,0.00,,,0.00,Wunderground v.1.15,2013-11-29 08:40:00,
2013-11-29 03:46:00,59.2,57.2,30.14,NW,321,3.0,17.0,93,0.00,,,0.00,Wunderground v.1.15,2013-11-29 08:46:00,
2013-11-29 03:52:00,59.2,57.2,30.14,NNW,337,4.0,17.0,93,0.00,,,0.00,Wunderground v.1.15,2013-11-29 08:52:00,
2013-11-29 03:58:00,59.2,57.2,30.14,NNW,335,3.0,17.0,93,0.00,,,0.00,Wunderground v.1.15,2013-11-29 08:58:00,
2013-11-29 04:04:00,59.1,57.1,30.14,NW,325,4.0,4.0,93,0.00,,,0.00,Wunderground v.1.15,2013-11-29 09:04:00,
2013-11-29 04:10:00,59.0,57.0,30.14,North,6,4.0,4.0,93,0.00,,,0.00,Wunderground v.1.15,2013-11-29 09:10:00,
2013-11-29 04:16:00,59.0,56.7,30.14,NW,326,3.0,4.0,92,0.00,,,0.00,Wunderground v.1.15,2013-11-29 09:16:00,
2013-11-29 04:22:00,58.9,56.6,30.15,NW,316,3.0,3.0,92,0.00,,,0.00,Wunderground v.1.15,2013-11-29 09:22:00,
2013-11-29 04:28:00,58.9,56.9,30.15,NW,321,2.0,3.0,93,0.00,,,0.00,Wunderground v.1.15,2013-11-29 09:28:00,
2013-11-29 04:34:00,58.8,56.8,30.15,NNW,338,2.0,3.0,93,0.00,,,0.00,Wunderground v.1.15,2013-11-29 09:34:00,
2013-11-29 04:40:00,58.8,56.8,30.15,NW,326,2.0,2.0,93,0.00,,,0.00,Wunderground v.1.15,2013-11-29 09:40:00,
2013-11-29 04:46:00,58.9,56.9,30.15,NW,318,2.0,2.0,93,0.00,,,0.00,Wunderground v.1.15,2013-11-29 09:46:00,
2013-11-29 04:52:00,58.9,56.9,30.15,NNW,340,2.0,5.0,93,0.00,,,0.00,Wunderground v.1.15,2013-11-29 09:52:00,
2013-11-29 04:58:00,59.0,56.7,30.16,NNE,22,2.0,5.0,92,0.00,,,0.00,Wunderground v.1.15,2013-11-29 09:58:00,
2013-11-29 05:04:00,59.0,56.7,30.15,NE,56,3.0,7.0,92,0.00,,,0.00,Wunderground v.1.15,2013-11-29 10:04:00,
2013-11-29 05:11:00,59.0,56.7,30.15,North,360,3.0,7.0,92,0.00,,,0.00,Wunderground v.1.15,2013-11-29 10:11:00,
2013-11-29 05:16:00,59.1,56.8,30.15,NNW,333,3.0,7.0,92,0.00,,,0.00,Wunderground v.1.15,2013-11-29 10:16:00,
2013-11-29 05:22:00,59.1,57.1,30.16,NW,322,3.0,4.0,93,0.00,,,0.00,Wunderground v.1.15,2013-11-29 10:22:00,
2013-11-29 05:28:00,59.3,57.3,30.16,NNW,328,3.0,7.0,93,0.00,,,0.00,Wunderground v.1.15,2013-11-29 10:28:00,
2013-11-29 05:34:00,59.5,57.2,30.15,NNE,16,3.0,7.0,92,0.00,,,0.00,Wunderground v.1.15,2013-11-29 10:34:00,
2013-11-29 05:40:00,59.6,57.3,30.16,NNW,342,2.0,2.0,92,0.00,,,0.00,Wunderground v.1.15,2013-11-29 10:40:00,
2013-11-29 05:46:00,59.7,57.4,30.16,NNW,335,1.0,7.0,92,0.00,,,0.00,Wunderground v.1.15,2013-11-29 10:46:00,
2013-11-29 05:52:00,59.8,57.5,30.16,NNW,331,2.0,7.0,92,0.00,,,0.00,Wunderground v.1.15,2013-11-29 10:52:00,
2013-11-29 05:58:00,59.8,57.5,30.16,NNW,330,2.0,7.0,92,0.00,,,0.00,Wunderground v.1.15,2013-11-29 10:58:00,
2013-11-29 06:04:00,59.9,57.6,30.17,NW,324,3.0,7.0,92,0.00,,,0.00,Wunderground v.1.15,2013-11-29 11:04:00,
2013-11-29 06:10:00,59.8,57.2,30.17,NW,321,3.0,7.0,91,0.00,,,0.00,Wunderground v.1.15,2013-11-29 11:10:00,
2013-11-29 06:16:00,59.8,57.5,30.17,NNW,333,3.0,7.0,92,0.00,,,0.00,Wunderground v.1.15,2013-11-29 11:16:00,
2013-11-29 06:22:00,59.8,57.5,30.17,NW,314,3.0,7.0,92,0.00,,,0.00,Wunderground v.1.15,2013-11-29 11:22:00,
2013-11-29 06:28:00,59.7,57.4,30.17,NNW,333,3.0,7.0,92,0.00,,,0.00,Wunderground v.1.15,2013-11-29 11:28:00,
2013-11-29 06:34:00,59.5,57.2,30.17,NNW,341,2.0,7.0,92,0.00,,,0.00,Wunderground v.1.15,2013-11-29 11:34:00,
2013-11-29 06:40:00,59.4,57.1,30.17,NW,321,3.0,7.0,92,0.00,,,0.00,Wunderground v.1.15,2013-11-29 11:40:00,
2013-11-29 06:46:00,59.3,57.0,30.17,NW,321,3.0,7.0,92,0.00,,,0.00,Wunderground v.1.15,2013-11-29 11:46:00,
2013-11-29 06:52:00,59.2,56.9,30.18,NW,326,2.0,3.0,92,0.00,,,0.00,Wunderground v.1.15,2013-11-29 11:52:00,
2013-11-29 06:58:00,59.2,56.9,30.18,North,355,2.0,7.0,92,0.00,,,0.00,Wunderground v.1.15,2013-11-29 11:58:00,
2013-11-29 07:04:00,59.1,56.8,30.18,NW,311,3.0,7.0,92,0.00,,,0.00,Wunderground v.1.15,2013-11-29 12:04:00,
2013-11-29 07:10:00,59.0,56.7,30.18,NW,307,4.0,4.0,92,0.00,,,0.00,Wunderground v.1.15,2013-11-29 12:10:00,
2013-11-29 07:16:00,59.1,56.8,30.19,North,6,3.0,7.0,92,0.00,,,0.00,Wunderground v.1.15,2013-11-29 12:16:00,
2013-11-29 07:22:00,59.1,56.8,30.19,WNW,285,3.0,7.0,92,0.00,,,0.00,Wunderground v.1.15,2013-11-29 12:22:00,
2013-11-29 07:28:00,59.1,56.8,30.18,NNW,332,3.0,7.0,92,0.00,,,0.00,Wunderground v.1.15,2013-11-29 12:28:00,
2013-11-29 07:34:00,59.4,57.1,30.19,NW,316,3.0,7.0,92,0.00,,,0.00,Wunderground v.1.15,2013-11-29 12:34:00,
2013-11-29 07:40:00,59.8,57.2,30.19,North,11,2.0,7.0,91,0.00,,,0.00,Wunderground v.1.15,2013-11-29 12:40:00,
2013-11-29 07:46:00,60.3,57.4,30.19,North,11,2.0,7.0,90,0.00,,,0.00,Wunderground v.1.15,2013-11-29 12:46:00,
2013-11-29 07:52:00,60.8,57.5,30.19,NW,308,2.0,4.0,89,0.00,,,0.00,Wunderground v.1.15,2013-11-29 12:52:00,
2013-11-29 07:58:00,60.9,57.6,30.19,WNW,302,3.0,8.0,89,0.00,,,0.00,Wunderground v.1.15,2013-11-29 12:58:00,
2013-11-29 08:04:00,61.4,57.8,30.19,NW,326,3.0,7.0,88,0.00,,,0.00,Wunderground v.1.15,2013-11-29 13:04:00,
2013-11-29 08:10:00,61.8,57.9,30.19,NW,310,2.0,7.0,87,0.00,,,0.00,Wunderground v.1.15,2013-11-29 13:10:00,
2013-11-29 08:16:00,62.1,58.2,30.19,NW,326,3.0,7.0,87,0.00,,,0.00,Wunderground v.1.15,2013-11-29 13:16:00,
2013-11-29 08:22:00,62.4,58.2,30.19,NNW,340,3.0,7.0,86,0.00,,,0.00,Wunderground v.1.15,2013-11-29 13:22:00,
2013-11-29 08:28:00,62.7,58.5,30.20,NW,314,4.0,7.0,86,0.00,,,0.00,Wunderground v.1.15,2013-11-29 13:28:00,
2013-11-29 08:34:00,63.5,58.6,30.20,NNW,328,2.0,7.0,84,0.00,,,0.00,Wunderground v.1.15,2013-11-29 13:34:00,
2013-11-29 08:40:00,63.9,58.6,30.20,WNW,290,2.0,2.0,83,0.00,,,0.00,Wunderground v.1.15,2013-11-29 13:40:00,
2013-11-29 08:46:00,64.6,59.3,30.21,NE,39,2.0,7.0,83,0.00,,,0.00,Wunderground v.1.15,2013-11-29 13:46:00,
2013-11-29 08:52:00,64.8,59.2,30.21,NNW,338,1.0,7.0,82,0.00,,,0.00,Wunderground v.1.15,2013-11-29 13:52:00,
2013-11-29 08:58:00,65.5,59.9,30.21,NW,317,2.0,7.0,82,0.00,,,0.00,Wunderground v.1.15,2013-11-29 13:58:00,
2013-11-29 09:04:00,66.0,59.7,30.21,North,354,2.0,7.0,80,0.00,,,0.00,Wunderground v.1.15,2013-11-29 14:04:00,
2013-11-29 09:11:00,66.9,60.2,30.21,NNW,343,1.0,7.0,79,0.00,,,0.00,Wunderground v.1.15,2013-11-29 14:11:00,
2013-11-29 09:16:00,67.1,60.4,30.21,NE,39,1.0,7.0,79,0.00,,,0.00,Wunderground v.1.15,2013-11-29 14:16:00,
2013-11-29 09:22:00,67.9,60.8,30.21,NW,319,1.0,7.0,78,0.00,,,0.00,Wunderground v.1.15,2013-11-29 14:22:00,
2013-11-29 09:28:00,68.6,60.7,30.22,ENE,77,1.0,7.0,76,0.00,,,0.00,Wunderground v.1.15,2013-11-29 14:28:00,
2013-11-29 09:34:00,69.4,61.1,30.21,NW,319,1.0,7.0,75,0.00,,,0.00,Wunderground v.1.15,2013-11-29 14:34:00,
2013-11-29 09:40:00,69.8,61.1,30.21,NW,304,1.0,7.0,74,0.00,,,0.00,Wunderground v.1.15,2013-11-29 14:40:00,
2013-11-29 09:46:00,70.3,61.6,30.21,NE,45,1.0,7.0,74,0.00,,,0.00,Wunderground v.1.15,2013-11-29 14:46:00,
2013-11-29 09:52:00,71.2,61.3,30.20,NE,45,2.0,7.0,71,0.00,,,0.00,Wunderground v.1.15,2013-11-29 14:52:00,
2013-11-29 09:58:00,71.8,62.3,30.20,NE,41,3.0,7.0,72,0.00,,,0.00,Wunderground v.1.15,2013-11-29 14:58:00,
2013-11-29 10:04:00,72.3,62.0,30.20,NNW,342,3.0,7.0,70,0.00,,,0.00,Wunderground v.1.15,2013-11-29 15:04:00,
2013-11-29 10:10:00,73.2,62.4,30.20,NE,42,3.0,3.0,69,0.00,,,0.00,Wunderground v.1.15,2013-11-29 15:10:00,
2013-11-29 10:16:00,73.9,62.2,30.20,NW,326,2.0,7.0,67,0.00,,,0.00,Wunderground v.1.15,2013-11-29 15:16:00,
2013-11-29 10:22:00,74.3,62.2,30.20,ENE,70,2.0,7.0,66,0.00,,,0.00,Wunderground v.1.15,2013-11-29 15:22:00,
2013-11-29 10:28:00,74.9,61.9,30.20,NW,314,2.0,7.0,64,0.00,,,0.00,Wunderground v.1.15,2013-11-29 15:28:00,
2013-11-29 10:34:00,75.4,62.4,30.20,NNE,32,2.0,7.0,64,0.00,,,0.00,Wunderground v.1.15,2013-11-29 15:34:00,
2013-11-29 10:40:00,75.5,62.0,30.19,NE,53,3.0,7.0,63,0.00,,,0.00,Wunderground v.1.15,2013-11-29 15:40:00,
2013-11-29 10:46:00,76.2,61.3,30.19,NE,50,4.0,7.0,60,0.00,,,0.00,Wunderground v.1.15,2013-11-29 15:46:00,
2013-11-29 10:52:00,76.5,61.1,30.19,NE,56,7.0,10.0,59,0.00,,,0.00,Wunderground v.1.15,2013-11-29 15:52:00,
2013-11-29 10:58:00,76.8,60.9,30.19,NNW,338,7.0,10.0,58,0.00,,,0.00,Wunderground v.1.15,2013-11-29 15:58:00,
2013-11-29 11:04:00,76.6,60.7,30.19,NE,52,8.0,8.0,58,0.00,,,0.00,Wunderground v.1.15,2013-11-29 16:04:00,
2013-11-29 11:10:00,76.5,60.6,30.18,NE,48,9.0,10.0,58,0.00,,,0.00,Wunderground v.1.15,2013-11-29 16:10:00,
2013-11-29 11:16:00,76.1,60.7,30.18,NE,38,8.0,10.0,59,0.00,,,0.00,Wunderground v.1.15,2013-11-29 16:16:00,
2013-11-29 11:22:00,76.2,60.3,30.18,ENE,59,6.0,7.0,58,0.00,,,0.00,Wunderground v.1.15,2013-11-29 16:22:00,
2013-11-29 11:28:00,75.7,60.4,30.18,NNE,23,8.0,13.0,59,0.00,,,0.00,Wunderground v.1.15,2013-11-29 16:28:00,
2013-11-29 11:34:00,75.7,60.4,30.18,NNE,22,9.0,9.0,59,0.00,,,0.00,Wunderground v.1.15,2013-11-29 16:34:00,
2013-11-29 11:40:00,75.8,60.9,30.18,NW,305,7.0,7.0,60,0.00,,,0.00,Wunderground v.1.15,2013-11-29 16:40:00,
2013-11-29 11:46:00,75.9,59.6,30.18,NE,39,6.0,8.0,57,0.00,,,0.00,Wunderground v.1.15,2013-11-29 16:46:00,
2013-11-29 11:52:00,75.6,60.3,30.17,ENE,62,7.0,7.0,59,0.00,,,0.00,Wunderground v.1.15,2013-11-29 16:52:00,
2013-11-29 11:58:00,76.0,60.2,30.17,NE,45,6.0,10.0,58,0.00,,,0.00,Wunderground v.1.15,2013-11-29 16:58:00,
2013-11-29 12:04:00,76.0,59.7,30.17,NE,53,6.0,8.0,57,0.00,,,0.00,Wunderground v.1.15,2013-11-29 17:04:00,
2013-11-29 12:10:00,75.8,60.0,30.17,SE,130,7.0,7.0,58,0.00,,,0.00,Wunderground v.1.15,2013-11-29 17:10:00,
2013-11-29 12:16:00,76.3,60.9,30.16,NE,55,6.0,11.0,59,0.00,,,0.00,Wunderground v.1.15,2013-11-29 17:16:00,
2013-11-29 12:22:00,76.8,60.9,30.16,NE,34,7.0,8.0,58,0.00,,,0.00,Wunderground v.1.15,2013-11-29 17:22:00,
2013-11-29 12:28:00,76.8,60.4,30.16,East,92,7.0,10.0,57,0.00,,,0.00,Wunderground v.1.15,2013-11-29 17:28:00,
2013-11-29 12:34:00,77.0,61.1,30.15,NE,48,8.0,9.0,58,0.00,,,0.00,Wunderground v.1.15,2013-11-29 17:34:00,
2013-11-29 12:40:00,76.5,60.1,30.15,East,95,7.0,7.0,57,0.00,,,0.00,Wunderground v.1.15,2013-11-29 17:40:00,
2013-11-29 12:46:00,76.2,59.9,30.15,NE,50,8.0,11.0,57,0.00,,,0.00,Wunderground v.1.15,2013-11-29 17:46:00,
2013-11-29 12:52:00,76.5,60.1,30.15,NNE,24,9.0,11.0,57,0.00,,,0.00,Wunderground v.1.15,2013-11-29 17:52:00,
2013-11-29 12:58:00,77.0,60.6,30.15,NNE,27,9.0,14.0,57,0.00,,,0.00,Wunderground v.1.15,2013-11-29 17:58:00,
2013-11-29 13:04:00,76.2,59.9,30.15,ENE,64,7.0,10.0,57,0.00,,,0.00,Wunderground v.1.15,2013-11-29 18:04:00,
2013-11-29 13:10:00,76.3,59.9,30.15,NNE,15,8.0,9.0,57,0.00,,,0.00,Wunderground v.1.15,2013-11-29 18:10:00,
2013-11-29 13:16:00,76.6,60.7,30.14,NE,52,9.0,9.0,58,0.00,,,0.00,Wunderground v.1.15,2013-11-29 18:16:00,
2013-11-29 13:22:00,75.9,59.6,30.14,NE,42,9.0,9.0,57,0.00,,,0.00,Wunderground v.1.15,2013-11-29 18:22:00,
2013-11-29 13:28:00,75.6,59.8,30.14,ENE,60,8.0,13.0,58,0.00,,,0.00,Wunderground v.1.15,2013-11-29 18:28:00,
2013-11-29 13:34:00,75.7,59.9,30.14,ENE,58,8.0,16.0,58,0.00,,,0.00,Wunderground v.1.15,2013-11-29 18:34:00,
2013-11-29 13:40:00,75.6,59.8,30.14,ENE,76,8.0,9.0,58,0.00,,,0.00,Wunderground v.1.15,2013-11-29 18:40:00,
2013-11-29 13:46:00,76.0,60.2,30.14,NE,45,8.0,11.0,58,0.00,,,0.00,Wunderground v.1.15,2013-11-29 18:46:00,
2013-11-29 13:52:00,76.3,59.9,30.13,ENE,61,7.0,12.0,57,0.00,,,0.00,Wunderground v.1.15,2013-11-29 18:52:00,
2013-11-29 13:58:00,76.5,60.1,30.13,NNE,27,8.0,12.0,57,0.00,,,0.00,Wunderground v.1.15,2013-11-29 18:58:00,
2013-11-29 14:04:00,76.5,61.1,30.13,East,81,8.0,13.0,59,0.00,,,0.00,Wunderground v.1.15,2013-11-29 19:04:00,
2013-11-29 14:10:00,76.0,61.1,30.13,NE,41,7.0,7.0,60,0.00,,,0.00,Wunderground v.1.15,2013-11-29 19:10:00,
2013-11-29 14:16:00,75.7,61.3,30.13,ENE,75,8.0,10.0,61,0.00,,,0.00,Wunderground v.1.15,2013-11-29 19:16:00,
2013-11-29 14:22:00,75.3,60.5,30.13,NNE,31,9.0,15.0,60,0.00,,,0.00,Wunderground v.1.15,2013-11-29 19:22:00,
2013-11-29 14:28:00,75.5,60.6,30.13,NE,53,8.0,15.0,60,0.00,,,0.00,Wunderground v.1.15,2013-11-29 19:28:00,
2013-11-29 14:34:00,75.7,60.8,30.13,NE,37,9.0,12.0,60,0.00,,,0.00,Wunderground v.1.15,2013-11-29 19:34:00,
2013-11-29 14:40:00,75.9,61.0,30.13,North,1,7.0,7.0,60,0.00,,,0.00,Wunderground v.1.15,2013-11-29 19:40:00,
2013-11-29 14:46:00,75.4,60.1,30.13,NE,44,6.0,7.0,59,0.00,,,0.00,Wunderground v.1.15,2013-11-29 19:46:00,
2013-11-29 14:52:00,75.1,59.8,30.13,ENE,61,7.0,8.0,59,0.00,,,0.00,Wunderground v.1.15,2013-11-29 19:52:00,
2013-11-29 14:58:00,74.9,59.1,30.13,ENE,58,9.0,15.0,58,0.00,,,0.00,Wunderground v.1.15,2013-11-29 19:58:00,
2013-11-29 15:04:00,74.6,59.3,30.13,ENE,68,9.0,17.0,59,0.00,,,0.00,Wunderground v.1.15,2013-11-29 20:04:00,
2013-11-29 15:10:00,74.4,59.1,30.13,NNE,27,8.0,9.0,59,0.00,,,0.00,Wunderground v.1.15,2013-11-29 20:10:00,
2013-11-29 15:16:00,74.3,59.0,30.13,NE,56,8.0,12.0,59,0.00,,,0.00,Wunderground v.1.15,2013-11-29 20:16:00,
2013-11-29 15:22:00,74.3,60.0,30.13,East,81,7.0,13.0,61,0.00,,,0.00,Wunderground v.1.15,2013-11-29 20:22:00,
2013-11-29 15:28:00,74.3,60.0,30.13,ENE,58,6.0,13.0,61,0.00,,,0.00,Wunderground v.1.15,2013-11-29 20:28:00,
2013-11-29 15:34:00,74.3,60.4,30.13,NNW,345,6.0,7.0,62,0.00,,,0.00,Wunderground v.1.15,2013-11-29 20:34:00,
2013-11-29 15:40:00,74.4,60.5,30.13,East,92,6.0,6.0,62,0.00,,,0.00,Wunderground v.1.15,2013-11-29 20:40:00,
2013-11-29 15:46:00,74.1,60.7,30.13,East,87,7.0,12.0,63,0.00,,,0.00,Wunderground v.1.15,2013-11-29 20:46:00,
2013-11-29 15:52:00,73.9,60.5,30.13,NE,49,8.0,11.0,63,0.00,,,0.00,Wunderground v.1.15,2013-11-29 20:52:00,
2013-11-29 15:58:00,73.8,60.0,30.13,ENE,60,8.0,13.0,62,0.00,,,0.00,Wunderground v.1.15,2013-11-29 20:58:00,
2013-11-29 16:04:00,73.7,59.9,30.13,NE,52,9.0,16.0,62,0.00,,,0.00,Wunderground v.1.15,2013-11-29 21:04:00,
2013-11-29 16:10:00,73.8,60.0,30.13,NE,48,7.0,10.0,62,0.00,,,0.00,Wunderground v.1.15,2013-11-29 21:10:00,
2013-11-29 16:16:00,73.7,59.9,30.13,ENE,68,6.0,10.0,62,0.00,,,0.00,Wunderground v.1.15,2013-11-29 21:16:00,
2013-11-29 16:22:00,73.6,60.2,30.13,NE,42,6.0,12.0,63,0.00,,,0.00,Wunderground v.1.15,2013-11-29 21:22:00,
2013-11-29 16:28:00,73.5,60.1,30.13,East,81,7.0,12.0,63,0.00,,,0.00,Wunderground v.1.15,2013-11-29 21:28:00,
2013-11-29 16:34:00,73.4,60.0,30.13,East,82,7.0,9.0,63,0.00,,,0.00,Wunderground v.1.15,2013-11-29 21:34:00,
2013-11-29 16:40:00,73.4,60.5,30.13,ENE,58,7.0,8.0,64,0.00,,,0.00,Wunderground v.1.15,2013-11-29 21:40:00,
2013-11-29 16:46:00,73.4,60.5,30.13,East,96,8.0,8.0,64,0.00,,,0.00,Wunderground v.1.15,2013-11-29 21:46:00,
2013-11-29 16:52:00,73.3,60.4,30.13,ENE,67,8.0,8.0,64,0.00,,,0.00,Wunderground v.1.15,2013-11-29 21:52:00,
2013-11-29 16:58:00,73.3,60.4,30.13,NE,51,7.0,8.0,64,0.00,,,0.00,Wunderground v.1.15,2013-11-29 21:58:00,
2013-11-29 17:04:00,73.3,60.4,30.13,ENE,72,8.0,9.0,64,0.00,,,0.00,Wunderground v.1.15,2013-11-29 22:04:00,
2013-11-29 17:10:00,73.2,60.3,30.13,NE,48,8.0,8.0,64,0.00,,,0.00,Wunderground v.1.15,2013-11-29 22:10:00,
2013-11-29 17:16:00,73.1,60.2,30.13,NE,46,8.0,8.0,64,0.00,,,0.00,Wunderground v.1.15,2013-11-29 22:16:00,
2013-11-29 17:22:00,73.1,60.2,30.13,NE,40,8.0,8.0,64,0.00,,,0.00,Wunderground v.1.15,2013-11-29 22:22:00,
2013-11-29 17:28:00,73.1,60.2,30.14,ENE,67,8.0,8.0,64,0.00,,,0.00,Wunderground v.1.15,2013-11-29 22:28:00,
2013-11-29 17:34:00,73.0,60.1,30.14,East,91,7.0,13.0,64,0.00,,,0.00,Wunderground v.1.15,2013-11-29 22:34:00,
2013-11-29 17:40:00,72.9,60.0,30.14,NE,53,6.0,7.0,64,0.00,,,0.00,Wunderground v.1.15,2013-11-29 22:40:00,
2013-11-29 17:46:00,72.9,59.6,30.14,NE,45,5.0,8.0,63,0.00,,,0.00,Wunderground v.1.15,2013-11-29 22:46:00,
2013-11-29 17:52:00,72.9,59.6,30.14,ENE,58,5.0,8.0,63,0.00,,,0.00,Wunderground v.1.15,2013-11-29 22:52:00,
2013-11-29 17:58:00,72.9,59.6,30.15,ESE,106,6.0,11.0,63,0.00,,,0.00,Wunderground v.1.15,2013-11-29 22:58:00,
2013-11-29 21:16:00,71.6,59.6,30.17,ENE,67,1.0,1.0,66,0.00,,,0.00,Wunderground v.1.15,2013-11-30 02:16:00,
2013-11-29 21:22:00,71.6,60.1,30.17,NE,40,1.0,7.0,67,0.00,,,0.00,Wunderground v.1.15,2013-11-30 02:22:00,
2013-11-29 21:28:00,71.4,60.3,30.16,ENE,59,1.0,1.0,68,0.00,,,0.00,Wunderground v.1.15,2013-11-30 02:28:00,
2013-11-29 21:34:00,71.2,60.5,30.16,NE,56,1.0,1.0,69,0.00,,,0.00,Wunderground v.1.15,2013-11-30 02:34:00,
2013-11-29 21:40:00,71.0,60.7,30.17,NE,48,0.0,0.0,70,0.00,,,0.00,Wunderground v.1.15,2013-11-30 02:40:00,
2013-11-29 21:46:00,70.7,60.8,30.16,NE,40,0.0,0.0,71,0.00,,,0.00,Wunderground v.1.15,2013-11-30 02:46:00,
2013-11-29 21:52:00,70.4,60.9,30.16,NE,49,0.0,1.0,72,0.00,,,0.00,Wunderground v.1.15,2013-11-30 02:52:00,
2013-11-29 21:58:00,70.1,61.0,30.16,NE,56,0.0,0.0,73,0.00,,,0.00,Wunderground v.1.15,2013-11-30 02:58:00,
2013-11-29 22:04:00,69.8,61.1,30.17,NE,56,0.0,7.0,74,0.00,,,0.00,Wunderground v.1.15,2013-11-30 03:04:00,
2013-11-29 22:10:00,69.8,61.5,30.17,NW,321,0.0,7.0,75,0.00,,,0.00,Wunderground v.1.15,2013-11-30 03:10:00,
2013-11-29 22:16:00,69.6,61.7,30.16,NNW,331,1.0,7.0,76,0.00,,,0.00,Wunderground v.1.15,2013-11-30 03:16:00,
2013-11-29 22:22:00,69.0,61.5,30.17,NNW,328,1.0,7.0,77,0.00,,,0.00,Wunderground v.1.15,2013-11-30 03:22:00,
2013-11-29 22:28:00,68.5,61.4,30.17,NW,323,1.0,7.0,78,0.00,,,0.00,Wunderground v.1.15,2013-11-30 03:28:00,
2013-11-29 22:34:00,68.1,61.7,30.16,NW,318,2.0,7.0,80,0.00,,,0.00,Wunderground v.1.15,2013-11-30 03:34:00,
2013-11-29 22:40:00,67.7,61.3,30.17,NNW,331,2.0,7.0,80,0.00,,,0.00,Wunderground v.1.15,2013-11-30 03:40:00,
2013-11-29 22:46:00,67.3,61.3,30.16,NW,321,2.0,7.0,81,0.00,,,0.00,Wunderground v.1.15,2013-11-30 03:46:00,
2013-11-29 22:52:00,67.1,61.4,30.16,NW,326,2.0,7.0,82,0.00,,,0.00,Wunderground v.1.15,2013-11-30 03:52:00,
2013-11-29 22:58:00,67.0,61.3,30.17,NNW,342,2.0,7.0,82,0.00,,,0.00,Wunderground v.1.15,2013-11-30 03:58:00,
2013-11-29 23:04:00,67.0,61.3,30.16,NNW,334,3.0,7.0,82,0.00,,,0.00,Wunderground v.1.15,2013-11-30 04:04:00,
2013-11-29 23:10:00,66.9,61.6,30.16,NNW,334,3.0,3.0,83,0.00,,,0.00,Wunderground v.1.15,2013-11-30 04:10:00,
2013-11-29 23:16:00,66.8,61.5,30.16,NW,312,2.0,7.0,83,0.00,,,0.00,Wunderground v.1.15,2013-11-30 04:16:00,
2013-11-29 23:22:00,66.6,61.3,30.16,NNW,338,3.0,7.0,83,0.00,,,0.00,Wunderground v.1.15,2013-11-30 04:22:00,
2013-11-29 23:28:00,66.3,61.3,30.16,NNW,328,3.0,7.0,84,0.00,,,0.00,Wunderground v.1.15,2013-11-30 04:28:00,
2013-11-29 23:34:00,66.0,61.0,30.16,NW,326,3.0,7.0,84,0.00,,,0.00,Wunderground v.1.15,2013-11-30 04:34:00,
2013-11-29 23:40:00,65.8,60.8,30.16,NNW,348,3.0,7.0,84,0.00,,,0.00,Wunderground v.1.15,2013-11-30 04:40:00,
2013-11-29 23:46:00,65.6,61.0,30.16,NW,319,3.0,7.0,85,0.00,,,0.00,Wunderground v.1.15,2013-11-30 04:46:00,
2013-11-29 23:52:00,65.3,60.7,30.16,NNW,332,3.0,7.0,85,0.00,,,0.00,Wunderground v.1.15,2013-11-30 04:52:00,
2013-11-29 23:58:00,65.1,60.5,30.16,NW,322,3.0,7.0,85,0.00,,,0.00,Wunderground v.1.15,2013-11-30 04:58:00,